Flag for Romania Weather past 2 weeks in Timișoara, Romania

Now
66 °F

Passing clouds.


Feels Like: 66 °F
Forecast: 64 / 80 °F
Wind: 2 mph from North

Location: Timisoara Airport

Current Time: Jul 29, 2014 at 1:38:00 AM

Latest Report: Jul 29, 2014 at 1:00 AM


Visibility: N/A

Pressure: 29.86 "Hg

Humidity: 94%

Dew point: 64 °F

Location of TimișoaraLocation

Historic Weather in Timișoara — Graph

°F

Timișoara temperature yesterday

Maximum temperature yesterday: 81 °F (at 3:00 PM)
Minimum temperature yesterday: 64 °F (at 3:00 AM)
Average temperature yesterday: 72 °F

Past Weeks' High & Low Weather Summary

 TemperatureHumidityPressure
High91 °F (Jul 20, 7:00 PM)100% (Jul 14, 2:30 AM)30.07 "Hg (Jul 14, 2:30 AM)
Low59 °F (Jul 15, 4:30 AM)29% (Jul 20, 5:30 PM)29.74 "Hg (Jul 22, 5:30 PM)
Average73 °F79%29.91 "Hg
* Reported Midnight between Jul 13 and Jul 14 — Jul 29 12:30 AM, Timișoara, Weather by CustomWeather, © 2014

Note: Actual official high and low records may vary slightly from our data, if they occured in-between our weather recording intervals... More about our weather records

Advertising

Timișoara weather history for previous 24 hours

 ConditionsComfort  
Time TempWeatherWind HumidityBarometerVisibility
12:30 AM
Jul 29
66 °FPassing clouds.2 mph94%29.86 "HgN/A
12:00 AM66 °FSprinkles. Passing clouds.1 mph94%29.86 "HgN/A
11:30 PM
Jul 28
66 °FPassing clouds.1 mph94%29.86 "HgN/A
11:00 PM66 °FPassing clouds.3 mph94%29.86 "HgN/A
10:30 PM66 °FPassing clouds.3 mph94%29.86 "HgN/A
10:00 PM66 °FThunderstorms. Scattered clouds.8 mph94%29.86 "HgN/A
9:30 PM68 °FThunderstorms. Partly sunny.5 mph94%29.86 "HgN/A
9:00 PM68 °FThunderstorms. Partly sunny.5 mph94%29.86 "HgN/A
8:30 PM68 °FThunderstorms. Partly sunny.5 mph94%29.86 "Hg3 mi
8:00 PM72 °FStrong thunderstorms. Partly sunny.8 mph94%29.86 "Hg2 mi
7:30 PM79 °FThunderstorms. Scattered clouds.5 mph61%29.83 "HgN/A
7:00 PM81 °FPassing clouds.2 mph54%29.83 "HgN/A
6:30 PM81 °FPassing clouds.1 mph51%29.86 "HgN/A
6:00 PM81 °FPassing clouds.3 mph51%29.86 "HgN/A
5:30 PM81 °FPassing clouds.3 mph54%29.86 "HgN/A
5:00 PM79 °FPassing clouds.3 mph54%29.86 "HgN/A
4:30 PM79 °FPassing clouds.5 mph54%29.86 "HgN/A
4:00 PM81 °FScattered clouds.7 mph54%29.89 "HgN/A
3:30 PM81 °FScattered clouds.10 mph51%29.89 "HgN/A
3:00 PM81 °FScattered clouds.6 mph62%29.89 "HgN/A
2:30 PM79 °FPassing clouds.8 mph65%29.89 "HgN/A
2:00 PM79 °FPassing clouds.3 mph61%29.92 "HgN/A
1:30 PM79 °FPassing clouds.3 mph61%29.92 "HgN/A
1:00 PM79 °FPassing clouds.3 mph65%29.92 "HgN/A
12:30 PM77 °FScattered clouds.3 mph69%29.92 "HgN/A
12:00 PM79 °FScattered clouds.6 mph61%29.92 "HgN/A
11:30 AM79 °FPassing clouds.2 mph70%29.92 "HgN/A
11:00 AM77 °FPassing clouds.5 mph74%29.92 "HgN/A
10:30 AM75 °FPassing clouds.3 mph74%29.92 "HgN/A
10:00 AM75 °FPassing clouds.3 mph78%29.92 "HgN/A
9:30 AM72 °FPassing clouds.3 mph88%29.89 "HgN/A
9:00 AM72 °FSunny.2 mph88%29.89 "Hg10 mi
8:30 AM70 °FPassing clouds.3 mph94%29.89 "HgN/A
8:00 AM68 °FSunny.2 mph94%29.89 "Hg10 mi
7:30 AM66 °FPassing clouds.3 mph100%29.89 "HgN/A
7:00 AM66 °FPassing clouds.3 mph94%29.89 "HgN/A
6:30 AM66 °FPassing clouds.7 mph94%29.86 "HgN/A
5:30 AM64 °FPassing clouds.6 mph100%29.89 "HgN/A
5:00 AM64 °FLight rain. Passing clouds.1 mph100%29.92 "HgN/A
4:30 AM64 °FSprinkles. Passing clouds.2 mph100%29.92 "HgN/A
4:00 AM66 °FSprinkles. Passing clouds.2 mph94%29.92 "HgN/A
3:30 AM64 °FPassing clouds.6 mph100%29.92 "HgN/A
3:00 AM64 °FPassing clouds.5 mph100%29.92 "HgN/A
2:30 AM66 °FThunderstorms. Passing clouds.5 mph94%29.92 "HgN/A
2:00 AM66 °FThunderstorms. Passing clouds.7 mph94%29.92 "HgN/A
1:30 AM66 °FThunderstorms. Passing clouds.12 mph94%29.92 "HgN/A
1:00 AM70 °FThunderstorms. Passing clouds.12 mph83%29.95 "HgN/A
Weather by CustomWeather, © 2014

See weather overviewHow to use our weather pages